Overview Statistics Trail Chart Weather Telemetry Raw packets
 

This is the latest recevied weather packets stored in our database for station/object NI4CE-10. If no packets are shown the sender has not sent any weather packets the latest 10 day(s).

<< 104 105 106 107 108 109 110 >>
Time Temp. Humidity Pressure Rain* Wind** Luminosity Snow
1788111493 35° C 100% 1018.7 hPa 0 mm - - -
1788111194 36.11° C 100% 1018.8 hPa 0 mm - - -
1788110894 39.44° C 100% 1018.7 hPa 0 mm - - -
1788110594 46.11° C 100% 1018.6 hPa 0 mm - - -
1788110294 40.56° C 100% 1018.7 hPa 0 mm - - -
1788109994 42.78° C 100% 1018.7 hPa 0 mm - - -
1788109694 40° C 100% 1018.8 hPa 0 mm - - -
1788109637 44.44° C 100% 1018.8 hPa 0 mm - - -
1788109394 44.44° C 100% 1018.8 hPa 0 mm - - -
1788109094 44.44° C 100% 1018.6 hPa 0 mm - - -
1788108794 46.67° C 100% 1018.8 hPa 0 mm - - -
1788108494 45° C 100% 1019 hPa 0 mm - - -
1788108194 41.11° C 100% 1019 hPa 0 mm - - -
1788107894 43.33° C 100% 1019.1 hPa 0 mm - - -
1788107594 46.11° C 100% 1019.1 hPa 0 mm - - -
1788107294 47.22° C 100% 1019.2 hPa 0 mm - - -
1788106994 45.56° C 100% 1019.2 hPa 0 mm - - -
1788106694 36.67° C 100% 1019.1 hPa 0 mm - - -
1788106394 37.22° C 100% 1019.1 hPa 0 mm - - -
1788106094 38.33° C 100% 1019.2 hPa 0 mm - - -
1788105800 46.11° C 100% 1019.2 hPa 0 mm - - -
1788105494 43.89° C 100% 1019.4 hPa 0 mm - - -
1788105194 41.11° C 100% 1019.5 hPa 0 mm - - -
1788104894 43.33° C 100% 1019.5 hPa 0 mm - - -
1788104594 43.33° C 100% 1019.3 hPa 0 mm - - -

* Rain latest hour (hover to see other rain measurements)
** Current wind speed in m/s (hover to see current wind gust speed)